Погода в Кулиге

Россия / Удмуртская Республика     58°10′59″N   53°45′43″E
темп.,
°C
ветер,
м/с
пор.,
м/с
влажн.,
%
обл.,
%
осадки,
мм/ч
давл.,
гПа
погр.,
м
17 июня, чт
чт1701:00+15сз499980 1.4 1007429
04:00+12ссз411950 1.4 1010542
07:00+13ссз410840 0.0 1011497
10:00+18ссз57455 0.0 10121729
13:00+20сз56366 0.0 10122613
16:00+18сз574668 0.0 10131976
19:00+17сз48515 0.0 10141539
22:00+12ссз4107820 0.0 1017548
18 июня, пт
пт1801:00+9ссз411875 0.0 1018559
04:00+8ссз4109639 0.0 1020416
07:00+10ссз477941 0.0 1022562
10:00+15с455726 0.0 10221025
13:00+17сз454496 0.1 10222081
16:00+19ссз463515 0.0 10222306
19:00+17зсз365120 0.0 1022650
22:00+12зюз3873100 0.0 1022186
19 июня, сб
сб1901:00+14зюз4136399 0.0 1021519
04:00+13зюз41371100 0.0 1020424
07:00+12юз41193100 0.6 1020353
10:00+19з5964100 0.7 1018657
13:00+25з6104690 0.0 10152380
16:00+26з6114763 0.0 10142604
19:00+24зсз511561 0.0 10141561
22:00+20з3127246 0.0 1014388
20 июня, вс
вс2001:00+19зсз4147989 0.0 1015571
04:00+17зсз4139129 0.0 1016510
07:00+19ссз58779 0.0 1017786
10:00+22ссз58535 0.0 10181407
13:00+23ссз57340 0.0 10191608
16:00+23ссз46322 0.0 10201650
19:00+21с26510 0.0 1020269
22:00+15всв22685 0.0 102112
21 июня, пн
пн2101:00+13ююв22672 0.0 102128
04:00+13ю23665 0.0 102250
07:00+18ю245820 0.0 1021209
10:00+23ююз365538 0.3 1020683
13:00+26юз4651100 0.1 10181351
16:00+26з465299 0.1 10171038
19:00+20сз3790100 1.5 1017184
22:00+19юз39927 1.8 1016160